Temp
57 57 57 57 57 56 56 57 57 57 57 58 58 58 59 59 59 62 70 76 70 71 79 83 84 79 84 84 80 85 82 83 82 74 75 75 71 74 70 73 70 66 64 66 68 62 58 82 80 71 75 78 72 80
56 56 56 56 56 56 56 56 56 56 56 57 58 58 58 58 58 58 67 78 76 67 74 81 83 86 84 85 82 88 84 82 85 80 79 80 74 76 71 65 77 67 74 68 71 65 77 83 80 82 85 82 83 83
56 56 56 56 56 56 56 56 56 56 56 56 57 58 58 58 58 58 63 67 69 68 73 78 79 89 94 92 94 80 88 88 86 89 83 81 70 78 70 71 73 77 79 74 72 78 78 81 82 83 85 84 85 86
55 55 55 55 56 56 55 56 56 56 56 56 56 57 57 57 57 57 60 67 66 69 67 80 94 87 93 95 92 92 89 89 92 89 82 80 77 83 76 76 75 79 77 73 74 77 78 80 82 82 83 85 85 85
55 55 55 56 56 56 56 56 56 56 56 56 56 57 57 57 56 59 63 64 67 63 65 76 87 91 92 91 88 89 88 86 85 81 80 77 85 80 81 78 76 82 76 74 74 80 77 79 83 85 82 81 83 83
55 55 55 55 55 55 56 56 56 56 56 56 56 56 56 56 55 56 54 66 65 67 64 69 86 83 87 88 87 85 87 87 86 83 82 85 82 78 74 72 80 85 85 84 79 84 83 84 85 87 84 84 85 84
54 54 54 55 55 55 56 56 55 55 56 56 56 56 55 55 57 55 54 59 60 67 66 68 73 82 85 86 86 85 84 85 85 82 81 80 80 76 75 69 79 81 83 84 84 83 78 81 81 85 85 84 79 85
54 54 54 54 55 55 55 56 55 55 55 55 55 55 55 54 53 53 64 56 63 67 72 66 70 75 84 79 77 86 80 81 80 80 81 76 77 76 68 76 80 82 83 82 81 84 84 84 85 84 85 84 81 82
54 54 54 54 54 55 55 56 55 55 55 55 55 55 61 57 54 61 60 59 68 64 62 69 67 67 83 79 82 80 82 73 80 74 75 76 72 64 71 74 77 80 80 79 82 83 84 82 81 81 82 81 80 81
54 54 54 54 54 55 55 55 55 55 54 55 59 63 56 64 59 61 60 60 62 67 66 62 76 66 80 78 77 75 78 71 67 73 79 70 69 76 78 78 80 81 82 82 79 76 80 80 80 80 81 82 82 82
54 54 54 54 54 55 55 54 54 54 53 64 63 62 64 59 64 60 56 59 64 61 66 68 73 72 83 70 72 77 69 72 61 68 67 66 66 75 80 81 81 82 83 83 84 84 84 84 82 81 81 82 82 83
53 54 54 54 55 55 55 54 54 58 62 55 59 55 63 55 57 57 58 64 61 59 69 68 71 75 66 81 73 64 67 66 59 75 66 60 70 77 80 80 81 81 82 82 84 83 84 84 84 83 82 81 83 83
54 54 54 54 55 55 54 54 54 55 56 66 58 54 56 54 44 51 51 57 61 70 73 73 68 72 72 76 71 63 60 60 74 65 60 66 73 78 78 80 80 82 82 82 83 84 84 83 83 83 81 82 83 82
53 53 53 53 53 54 54 54 54 57 60 55 54 41 53 53 56 59 63 63 71 74 72 74 70 69 64 68 65 57 65 66 58 58 60 71 73 76 79 80 80 79 80 81 82 83 82 80 80 82 82 82 82 80
53 53 53 53 53 54 54 54 54 62 59 54 57 47 56 65 65 66 69 69 72 74 72 72 71 65 62 54 63 61 54 53 57 59 69 76 76 77 78 80 80 80 80 81 82 82 81 80 79 79 82 82 81 80
53 51 57 55 55 55 54 55 60 63 62 59 58 58 66 60 63 65 62 64 70 70 71 70 61 62 62 63 59 56 56 54 60 67 73 77 72 72 74 78 79 80 80 81 82 82 81 80 79 79 81 81 81 80
51 56 54 54 55 55 54 57 60 58 60 57 60 69 67 63 59 62 65 64 68 65 61 64 58 58 69 62 61 65 61 65 61 70 75 70 70 70 72 75 78 79 78 79 80 80 80 81 81 79 75 77 80 80
54 56 54 54 56 56 62 61 57 58 54 62 61 65 64 68 67 69 72 72 65 61 62 59 62 60 58 58 62 69 71 73 74 73 73 71 71 71 74 73 76 77 77 79 79 79 79 78 77 77 76 77 78 78
53 55 53 54 56 58 56 60 62 55 60 64 64 67 65 66 69 71 71 70 71 68 63 61 55 59 60 66 67 70 61 70 71 71 75 73 72 71 71 73 74 75 76 76 77 79 79 77 79 80 80 78 78 78
53 53 53 54 55 55 57 60 67 59 58 59 60 57 58 60 62 64 67 69 66 62 60 57 59 67 67 71 72 71 71 72 73 71 72 76 78 72 71 73 74 74 76 76 77 69 79 78 82 81 81 78 79 77
52 57 54 56 60 59 60 59 56 61 60 55 60 55 53 61 58 61 62 68 64 59 59 65 67 69 69 66 56 71 73 74 72 72 71 72 75 75 75 74 75 76 75 76 77 76 72 79 81 81 80 79 80 79
57 55 58 59 51 58 59 66 60 56 56 50 48 50 49 50 57 58 65 58 59 65 68 69 71 71 72 69 71 71 72 71 72 71 55 61 70 74 74 75 75 75 76 77 78 77 77 80 79 79 77 78 71 75
52 57 54 58 53 50 51 61 52 51 45 49 49 46 50 51 55 60 56 63 63 61 62 65 68 71 71 72 69 68 72 71 72 74 74 71 66 66 73 75 77 76 76 78 79 76 73 61 68 73 72 72 70 65
52 54 51 52 53 45 56 53 56 53 54 53 54 53 54 55 64 61 57 56 62 64 59 60 62 66 70 69 71 72 72 74 73 73 72 62 59 60 64 65 66 72 75 78 75 75 72 70 62 70 72 72 72 67
43 43 46 37 48 46 47 51 54 56 54 57 56 57 54 60 54 54 56 58 61 65 63 63 64 65 63 62 66 70 75 74 72 72 70 64 63 59 60 63 66 72 77 75 73 71 69 67 69 69 69 72 69 67
38 48 43 51 48 46 52 48 50 54 57 56 56 58 56 54 52 51 57 60 62 64 60 58 60 63 66 63 63 69 66 66 63 65 60 65 66 64 59 56 58 59 65 60 59 60 59 59 59 65 71 69 57 70
38 45 53 59 54 49 56 59 59 53 54 51 56 53 49 45 47 56 64 61 56 63 66 65 63 66 63 63 67 69 68 67 67 68 67 66 71 71 66 65 62 64 67 67 62 62 63 68 69 71 72 72 71 71
47 50 47 56 56 59 54 56 56 52 51 52 52 48 49 49 55 60 62 64 62 58 60 59 65 64 64 68 73 71 69 69 70 69 71 67 65 76 72 68 70 51 66 65 65 71 74 75 74 74 73 73 73 76
51 58 56 53 57 58 58 54 49 50 53 52 50 51 54 61 68 68 67 71 71 63 59 58 63 71 74 79 79 80 78 74 71 67 65 65 66 67 72 69 68 71 74 73 46 64 74 75 74 74 75 75 76 76
54 63 58 56 54 54 55 57 54 54 55 56 58 60 63 67 75 78 69 69 70 62 64 64 69 68 73 75 75 75 81 81 79 77 74 73 74 77 76 74 75 77 77 76 76 74 49 67 64 77 75 76 74 72
63 63 58 59 57 60 58 57 57 58 58 61 65 65 68 71 76 80 77 78 78 79 78 77 79 79 78 77 76 76 76 81 81 81 81 81 81 80 80 80 81 80 80 79 78 77 76 74 75 73 72 72 73 71
61 55 51 50 49 51 54 55 54 58 63 64 65 68 70 68 64 71 80 80 79 78 66 76 76 77 79 80 82 81 62 81 81 81 81 82 81 81 82 81 81 81 79 78 75 67 75 76 77 74 75 74 73 74
54 51 50 47 48 50 54 55 57 58 63 62 60 60 68 66 63 72 75 82 79 81 80 81 82 81 80 81 81 79 73 77 55 43 46 44 42 54 76 80 82 81 81 81 78 78 77 76 76 75 75 74 73 74
MSLP
1017.91 1018.16 1018.27 1018.44 1018.73 1019.09 1019.27 1019.41 1019.54 1019.55 1019.53 1019.43 1019.17 1019.04 1018.88 1018.71 1018.46 1017.79 1015.81 1015.27 1014.77 1011.89 1008.61 1007.54 1006.85 1006.15 1004.87 1004.30 1003.07 1003.19 1004.28 1004.34 1003.95 1004.05 1003.81 1003.54 1004.42 1004.35 1004.96 1004.75 1004.94 1005.26 1005.56 1004.93 1005.22 1005.52 1005.77 1005.98 1005.84 1005.94 1006.94 1007.45 1007.65 1007.15
1017.52 1017.75 1017.92 1018.29 1018.52 1018.83 1019.05 1019.25 1019.31 1019.29 1019.22 1019.20 1019.02 1018.91 1018.83 1018.68 1018.52 1018.15 1016.06 1015.06 1014.99 1013.98 1009.97 1009.37 1008.32 1007.46 1007.03 1006.14 1005.45 1003.60 1003.48 1003.53 1003.44 1003.37 1004.11 1004.12 1004.31 1004.52 1004.92 1004.47 1005.50 1005.60 1005.18 1005.58 1005.41 1006.42 1006.53 1006.19 1006.39 1006.65 1006.69 1007.11 1007.30 1007.42
1017.25 1017.56 1017.71 1018.16 1018.39 1018.60 1018.88 1019.03 1018.96 1018.99 1019.03 1019.01 1018.92 1018.84 1018.72 1018.51 1018.35 1018.20 1016.98 1016.24 1015.21 1013.10 1010.17 1008.18 1006.80 1006.13 1006.16 1006.17 1006.09 1005.12 1003.71 1003.63 1003.94 1004.23 1003.97 1004.16 1004.69 1004.68 1004.18 1004.47 1004.67 1005.33 1005.84 1005.69 1005.96 1005.69 1006.33 1006.59 1007.08 1007.16 1007.20 1007.29 1007.60 1007.94
1017.21 1017.54 1017.91 1018.11 1018.23 1018.42 1018.58 1018.66 1018.76 1018.82 1018.76 1018.84 1018.66 1018.58 1018.46 1018.32 1018.14 1018.13 1017.19 1016.42 1015.88 1013.46 1010.07 1005.49 1004.71 1005.05 1005.49 1005.33 1005.54 1005.49 1005.15 1005.09 1004.34 1004.69 1004.51 1004.30 1004.40 1005.13 1004.68 1004.73 1004.72 1005.14 1005.79 1005.72 1005.76 1006.27 1006.61 1006.87 1007.13 1007.41 1007.67 1007.82 1007.90 1008.10
1017.21 1017.55 1017.81 1017.94 1018.12 1018.26 1018.40 1018.52 1018.55 1018.62 1018.64 1018.60 1018.36 1018.23 1018.10 1018.03 1018.00 1017.61 1016.87 1016.47 1016.20 1015.00 1010.59 1006.45 1005.00 1004.58 1005.10 1005.18 1005.47 1005.53 1005.54 1005.23 1004.77 1004.66 1004.63 1004.47 1004.67 1005.54 1005.14 1005.46 1004.74 1004.72 1005.20 1005.32 1004.67 1005.33 1006.38 1006.26 1007.01 1007.52 1007.91 1008.25 1008.46 1008.68
1017.37 1017.55 1017.68 1017.87 1017.93 1018.03 1018.17 1018.29 1018.30 1018.40 1018.42 1018.24 1018.09 1018.04 1017.90 1017.89 1017.84 1017.53 1016.38 1015.33 1015.96 1015.61 1012.69 1007.35 1004.95 1004.86 1004.96 1005.01 1005.13 1005.33 1005.29 1005.06 1004.64 1004.22 1004.18 1004.46 1005.90 1006.51 1005.32 1004.62 1004.62 1004.59 1005.00 1005.42 1005.62 1005.94 1006.55 1006.68 1007.12 1007.35 1007.89 1008.14 1008.56 1009.01
1017.29 1017.46 1017.58 1017.70 1017.79 1017.86 1017.98 1018.02 1018.10 1018.11 1018.04 1018.02 1017.91 1017.81 1017.74 1017.68 1017.67 1017.22 1016.65 1016.17 1015.99 1015.62 1012.47 1008.32 1005.30 1004.90 1005.20 1005.00 1005.02 1005.16 1005.69 1005.22 1004.83 1004.62 1004.84 1005.30 1006.02 1007.08 1005.86 1005.15 1005.00 1005.30 1005.46 1005.54 1006.14 1006.46 1006.81 1007.21 1007.25 1007.47 1007.95 1008.57 1009.15 1009.25
1017.20 1017.25 1017.33 1017.45 1017.54 1017.69 1017.75 1017.78 1017.81 1017.77 1017.75 1017.75 1017.65 1017.53 1017.48 1017.42 1017.54 1016.87 1015.21 1016.11 1015.92 1014.28 1011.37 1008.20 1005.21 1004.82 1005.06 1004.50 1004.49 1004.82 1005.17 1005.43 1005.44 1005.03 1005.52 1005.77 1006.11 1006.45 1005.72 1005.38 1005.42 1005.28 1005.42 1005.89 1006.40 1006.55 1006.52 1007.03 1007.24 1007.79 1008.34 1008.84 1009.35 1009.28
1016.99 1017.02 1017.08 1017.16 1017.34 1017.45 1017.45 1017.41 1017.43 1017.45 1017.45 1017.41 1017.35 1017.16 1016.90 1016.90 1016.30 1014.78 1014.84 1015.61 1015.32 1014.26 1010.91 1007.68 1005.22 1003.89 1004.54 1004.43 1004.27 1005.02 1004.77 1004.89 1005.55 1005.21 1005.30 1005.65 1005.41 1005.40 1005.85 1005.71 1005.40 1005.31 1005.28 1005.75 1006.29 1006.47 1006.63 1006.88 1007.34 1007.94 1008.43 1008.95 1009.20 1009.37
1016.75 1016.84 1016.84 1016.91 1017.04 1017.11 1017.10 1017.08 1017.08 1017.15 1017.05 1017.06 1016.97 1016.00 1015.22 1014.65 1014.94 1015.18 1015.54 1014.42 1013.97 1012.14 1010.91 1008.11 1005.34 1004.58 1004.16 1003.98 1003.84 1004.67 1004.93 1004.93 1004.76 1004.91 1005.31 1005.52 1005.11 1005.04 1005.14 1005.44 1005.40 1005.30 1005.36 1005.67 1005.66 1006.15 1006.42 1006.63 1007.25 1007.80 1008.28 1008.80 1009.14 1009.36
1016.51 1016.57 1016.58 1016.59 1016.71 1016.78 1016.80 1016.85 1016.86 1016.79 1016.50 1015.90 1014.92 1014.49 1014.86 1015.12 1014.49 1013.57 1012.46 1011.36 1010.49 1009.44 1008.47 1007.37 1005.72 1004.26 1004.02 1003.86 1004.04 1004.42 1004.64 1004.71 1004.52 1004.57 1004.95 1004.71 1004.35 1004.21 1004.20 1004.36 1004.86 1005.21 1005.24 1005.38 1005.35 1005.80 1006.27 1006.47 1007.01 1007.59 1008.17 1008.62 1009.11 1009.35
1016.22 1016.19 1016.21 1016.24 1016.33 1016.40 1016.52 1016.61 1016.60 1016.35 1015.29 1015.88 1015.64 1015.32 1014.64 1014.62 1013.37 1011.62 1010.07 1008.86 1008.33 1007.12 1006.16 1005.83 1005.55 1004.98 1005.81 1004.60 1004.70 1006.54 1005.16 1005.69 1004.51 1004.13 1004.55 1004.00 1004.04 1004.01 1003.92 1004.13 1004.24 1004.71 1005.11 1005.27 1005.27 1005.61 1006.10 1006.43 1007.00 1007.46 1008.00 1008.56 1008.92 1009.30
1015.84 1015.91 1015.92 1015.94 1015.98 1016.10 1016.29 1016.39 1016.37 1016.18 1015.77 1014.81 1015.06 1014.33 1013.16 1012.69 1011.87 1010.11 1008.41 1007.36 1006.24 1005.33 1004.97 1004.93 1004.81 1005.10 1005.81 1005.73 1005.40 1006.85 1006.07 1005.41 1004.67 1004.25 1003.86 1003.96 1004.16 1003.73 1004.13 1004.26 1004.36 1004.56 1004.97 1005.15 1005.21 1005.54 1006.12 1006.56 1007.20 1007.55 1008.06 1008.63 1008.90 1009.41
1015.71 1015.71 1015.69 1015.70 1015.76 1015.87 1016.03 1016.16 1016.23 1016.09 1015.56 1014.16 1013.12 1012.48 1011.23 1009.97 1008.98 1007.93 1007.02 1006.16 1005.84 1005.17 1005.14 1004.91 1004.87 1005.08 1006.14 1006.04 1006.59 1006.72 1006.45 1006.23 1004.95 1003.64 1003.49 1003.57 1003.90 1003.92 1003.93 1004.19 1004.31 1004.44 1004.69 1004.89 1005.16 1005.50 1006.06 1006.73 1007.37 1007.75 1008.10 1008.59 1008.98 1009.42
1015.53 1015.51 1015.46 1015.35 1015.37 1015.53 1015.75 1015.94 1016.05 1015.40 1014.29 1012.95 1011.64 1010.53 1009.23 1008.22 1007.85 1007.37 1007.05 1006.54 1006.22 1005.90 1005.70 1005.30 1005.31 1006.02 1006.23 1007.09 1006.61 1006.99 1006.93 1005.98 1005.01 1003.70 1003.34 1003.29 1003.50 1003.88 1003.87 1003.99 1004.07 1004.22 1004.51 1004.70 1005.01 1005.41 1006.03 1006.70 1007.35 1007.81 1008.12 1008.57 1009.00 1009.53
1015.37 1015.38 1014.85 1014.94 1015.08 1015.19 1015.36 1015.68 1015.53 1014.53 1013.03 1011.90 1010.80 1009.33 1007.93 1007.92 1007.32 1007.26 1007.53 1006.92 1006.80 1006.51 1006.29 1006.16 1006.40 1005.44 1005.39 1005.44 1005.50 1005.54 1005.21 1004.87 1004.72 1004.15 1003.83 1003.76 1004.67 1004.90 1004.68 1004.24 1004.06 1004.07 1004.37 1004.58 1004.91 1005.38 1006.04 1006.67 1007.22 1007.71 1008.13 1008.50 1009.04 1009.67
1015.34 1014.63 1014.80 1014.87 1014.92 1014.98 1015.12 1015.04 1014.18 1013.17 1011.64 1010.60 1009.14 1008.38 1007.76 1007.57 1007.64 1007.26 1007.32 1007.33 1007.19 1006.97 1006.94 1006.36 1005.88 1005.52 1004.41 1003.98 1003.92 1003.93 1003.94 1003.99 1004.94 1004.26 1003.85 1004.98 1005.26 1005.32 1005.22 1004.60 1004.21 1004.23 1004.50 1004.64 1004.97 1005.45 1006.03 1006.66 1007.17 1007.75 1008.29 1008.71 1009.01 1009.68
1014.83 1014.63 1014.80 1014.82 1014.75 1014.80 1014.23 1014.19 1013.28 1011.88 1010.68 1009.51 1008.62 1007.93 1007.84 1007.52 1007.13 1006.79 1006.61 1006.82 1007.59 1007.86 1007.42 1006.94 1006.89 1005.48 1004.62 1003.75 1003.41 1003.26 1003.48 1003.85 1004.18 1004.19 1004.35 1005.22 1005.37 1005.45 1005.18 1005.01 1004.71 1004.57 1004.80 1004.92 1005.29 1005.78 1006.28 1006.77 1007.20 1007.76 1008.42 1008.89 1009.26 1009.88
1014.88 1014.74 1014.90 1014.87 1014.73 1014.26 1013.22 1012.51 1012.09 1010.76 1009.43 1008.75 1008.53 1008.20 1007.99 1007.84 1007.45 1007.14 1007.02 1007.32 1007.42 1007.97 1008.17 1007.61 1006.97 1005.37 1004.60 1004.33 1004.31 1004.31 1004.92 1004.65 1004.20 1004.51 1004.75 1005.13 1005.48 1005.62 1005.63 1005.45 1005.23 1005.09 1005.09 1005.42 1005.83 1006.02 1006.41 1006.95 1007.10 1007.42 1008.04 1008.71 1009.01 1009.86
1015.02 1014.94 1014.88 1014.84 1014.83 1013.79 1012.20 1011.35 1011.22 1010.39 1009.23 1009.39 1009.45 1009.22 1008.88 1008.58 1008.26 1007.92 1007.38 1006.94 1007.17 1007.75 1007.34 1006.85 1006.01 1005.01 1004.72 1004.63 1004.79 1004.74 1004.75 1004.72 1004.92 1004.75 1004.67 1004.54 1004.82 1005.53 1005.52 1005.47 1005.35 1005.39 1005.48 1005.77 1006.09 1006.12 1006.47 1006.85 1006.76 1007.34 1007.81 1008.55 1008.90 1009.53
1014.89 1014.52 1014.75 1014.53 1013.86 1013.23 1012.13 1010.97 1010.57 1009.95 1009.98 1009.86 1009.63 1009.93 1009.49 1008.68 1008.29 1007.55 1007.10 1006.71 1006.37 1006.53 1006.18 1005.75 1005.40 1005.02 1004.96 1005.45 1005.97 1005.52 1004.87 1005.07 1005.10 1005.30 1005.29 1005.00 1005.01 1005.38 1005.40 1005.52 1005.42 1005.25 1005.30 1005.52 1005.63 1005.93 1006.36 1006.41 1006.62 1007.29 1007.94 1008.48 1008.79 1009.21
1014.37 1014.49 1014.22 1014.13 1013.83 1012.71 1011.63 1010.35 1010.22 1010.70 1010.64 1010.66 1010.62 1010.12 1009.35 1008.48 1007.43 1006.72 1006.54 1006.51 1005.94 1005.42 1005.13 1004.92 1004.52 1004.25 1004.37 1004.89 1005.06 1005.57 1005.41 1005.56 1005.70 1005.75 1006.17 1006.28 1006.04 1005.16 1005.02 1005.06 1005.05 1004.73 1004.81 1004.99 1005.41 1006.00 1006.33 1006.56 1007.27 1007.90 1008.44 1008.80 1009.48 1009.79
1014.63 1014.38 1014.00 1013.21 1012.95 1012.37 1011.39 1010.85 1010.49 1010.46 1010.41 1009.64 1009.47 1009.21 1008.48 1007.71 1006.96 1006.58 1006.11 1005.08 1005.15 1005.42 1005.36 1004.97 1004.61 1004.38 1004.33 1004.33 1004.66 1004.89 1005.07 1005.29 1005.33 1005.12 1005.52 1006.37 1006.59 1006.37 1005.47 1005.01 1004.77 1004.60 1004.76 1005.00 1005.43 1006.36 1007.33 1008.15 1008.52 1008.84 1009.50 1009.99 1010.25 1010.98
1014.52 1013.82 1013.07 1012.50 1012.24 1011.91 1011.13 1010.27 1010.04 1009.64 1008.82 1008.05 1007.44 1006.63 1006.12 1006.03 1005.73 1005.51 1005.07 1005.03 1005.11 1005.33 1005.32 1005.21 1005.04 1004.38 1003.95 1004.31 1004.30 1004.18 1004.54 1004.86 1004.89 1005.38 1005.89 1006.65 1006.78 1006.94 1006.54 1006.03 1005.11 1005.09 1005.32 1005.80 1006.58 1007.03 1007.97 1008.60 1009.15 1009.03 1009.02 1009.57 1009.95 1011.36
1014.36 1013.75 1013.17 1012.55 1012.15 1011.65 1010.50 1009.34 1008.29 1007.81 1006.93 1006.30 1006.03 1005.52 1005.59 1005.57 1005.21 1004.80 1004.56 1004.93 1005.11 1004.64 1004.77 1004.74 1004.69 1004.42 1004.29 1004.32 1004.04 1003.72 1003.57 1004.15 1004.36 1004.67 1005.56 1006.52 1006.85 1007.13 1007.11 1007.04 1006.88 1006.73 1006.76 1006.77 1007.48 1008.05 1008.57 1009.06 1008.92 1009.18 1009.48 1009.46 1010.29 1011.41
1013.45 1012.42 1012.04 1011.07 1010.92 1010.77 1009.30 1008.35 1007.84 1007.11 1006.45 1006.08 1005.83 1006.02 1005.99 1005.61 1005.10 1004.74 1004.74 1004.94 1004.87 1004.72 1004.87 1004.73 1004.56 1004.19 1003.92 1003.78 1003.83 1004.13 1004.75 1005.21 1005.60 1005.77 1006.31 1006.52 1006.57 1006.72 1007.17 1007.43 1007.80 1008.26 1008.33 1008.21 1008.65 1009.11 1009.49 1009.92 1010.13 1010.15 1009.47 1009.90 1010.53 1010.82
1012.63 1011.51 1010.67 1010.41 1010.05 1010.00 1008.76 1007.96 1007.64 1007.50 1006.60 1006.66 1006.51 1006.45 1006.55 1006.11 1005.28 1004.88 1004.84 1005.22 1005.59 1005.34 1004.99 1004.92 1004.61 1004.21 1004.19 1004.24 1004.44 1004.57 1004.99 1005.35 1005.51 1005.53 1005.89 1006.15 1006.04 1006.07 1006.42 1006.60 1007.16 1008.02 1008.43 1008.45 1009.00 1009.22 1009.37 1009.34 1009.38 1009.21 1009.19 1009.72 1010.58 1010.88
1011.76 1010.76 1009.67 1008.85 1008.58 1008.15 1007.90 1007.33 1007.02 1007.24 1007.63 1007.88 1007.48 1006.77 1006.21 1005.64 1004.88 1004.94 1004.83 1004.87 1005.26 1005.63 1005.53 1005.38 1004.84 1004.76 1004.71 1004.24 1004.27 1004.48 1004.79 1005.19 1005.52 1005.62 1005.72 1006.16 1006.11 1005.53 1006.05 1006.34 1006.91 1008.12 1008.50 1008.86 1008.82 1008.48 1008.28 1008.37 1008.70 1008.91 1009.30 1009.56 1009.99 1009.94
1010.27 1009.04 1008.74 1008.16 1007.81 1007.58 1007.37 1007.39 1007.87 1008.17 1008.15 1007.98 1007.53 1006.61 1005.82 1005.41 1004.84 1004.37 1004.30 1004.33 1004.50 1005.15 1005.52 1005.53 1005.34 1004.78 1004.11 1003.58 1003.49 1003.29 1003.55 1003.81 1004.35 1004.81 1004.97 1005.30 1005.57 1005.88 1006.16 1007.41 1008.00 1008.00 1007.87 1008.29 1008.97 1008.10 1008.25 1008.69 1009.01 1009.27 1009.23 1009.29 1009.50 1009.80
1008.55 1007.85 1007.77 1007.60 1007.46 1007.07 1007.48 1007.61 1007.92 1008.09 1008.00 1007.74 1007.12 1006.31 1005.57 1004.48 1003.75 1003.56 1004.28 1004.23 1004.62 1005.06 1005.10 1005.08 1004.60 1004.25 1003.61 1003.17 1003.09 1003.32 1003.12 1003.12 1003.43 1003.41 1003.59 1004.09 1004.47 1005.22 1005.89 1006.62 1006.77 1007.07 1007.55 1007.97 1008.27 1008.84 1009.35 1009.22 1009.44 1009.10 1009.25 1008.95 1009.12 1009.40
1007.69 1007.68 1007.60 1007.39 1007.25 1007.28 1007.85 1008.21 1007.97 1007.81 1007.44 1006.53 1005.90 1005.00 1004.29 1003.86 1003.40 1003.18 1003.56 1003.73 1003.79 1003.73 1003.43 1003.40 1003.25 1003.36 1003.43 1003.45 1003.37 1003.44 1003.58 1004.03 1004.43 1004.50 1004.50 1004.75 1005.10 1005.35 1005.57 1005.82 1006.17 1006.64 1007.04 1007.26 1007.62 1008.08 1008.46 1008.76 1008.48 1008.61 1008.63 1008.62 1008.64 1008.88
1007.65 1007.99 1008.28 1008.28 1008.36 1008.31 1008.16 1007.86 1007.61 1007.03 1006.27 1005.39 1004.63 1004.52 1004.14 1004.11 1003.90 1003.87 1003.60 1003.34 1003.19 1003.26 1003.77 1003.58 1003.83 1003.77 1003.98 1004.12 1004.08 1004.58 1004.61 1004.71 1005.01 1005.03 1004.95 1005.18 1005.41 1005.65 1005.74 1006.03 1006.25 1006.59 1006.95 1007.35 1007.62 1008.43 1008.01 1007.91 1007.67 1007.92 1007.97 1008.19 1008.50 1008.66
1008.30 1008.70 1008.76 1008.70 1008.29 1007.79 1007.73 1007.45 1006.89 1006.27 1005.31 1004.83 1005.26 1005.17 1004.42 1004.46 1004.10 1004.39 1004.46 1004.00 1003.76 1003.38 1003.56 1003.81 1004.23 1004.76 1004.92 1004.92 1005.09 1005.38 1005.63 1006.23 1006.86 1006.74 1006.66 1006.82 1006.91 1006.95 1006.76 1006.70 1006.57 1006.63 1006.68 1006.76 1007.08 1007.36 1007.42 1007.61 1007.65 1007.81 1007.92 1008.31 1008.62 1008.56
Wind_Speed
9 9 9 8 9 8 7 7 7 7 7 8 8 8 8 8 7 6 6 2 7 9 16 11 12 10 7 7 10 13 11 8 8 6 4 3 6 5 7 9 3 6 12 4 5 4 2 6 4 6 7 14 18 5
8 8 9 9 8 7 6 7 7 5 5 8 8 8 8 7 7 5 6 0 4 8 11 16 16 14 14 13 10 4 9 6 6 5 2 3 4 4 7 8 7 7 7 7 9 5 4 5 7 4 5 5 5 7
9 9 9 8 7 6 6 7 7 5 6 8 8 8 8 6 6 6 5 5 8 9 13 16 16 18 17 16 11 12 5 3 3 6 5 4 4 7 5 6 5 8 3 7 4 6 3 6 4 3 2 5 3 6
9 8 7 7 7 6 6 7 7 7 7 8 8 8 8 7 6 7 4 4 6 7 7 10 14 13 9 10 11 13 8 6 3 5 6 5 3 2 4 5 6 8 7 4 6 5 3 4 6 4 3 1 0 5
7 8 7 7 7 6 6 6 6 7 7 8 8 8 8 7 7 7 8 7 9 8 7 8 2 11 10 9 9 11 10 8 6 6 6 7 1 2 5 4 7 7 7 7 2 9 7 0 8 7 6 5 3 5
6 6 6 6 6 6 6 6 6 7 8 8 8 8 8 6 5 4 4 5 8 7 7 6 5 5 5 7 9 10 10 8 9 8 6 2 5 5 6 4 3 7 8 7 5 1 7 1 1 9 8 7 7 6
6 7 8 7 7 7 6 6 6 7 7 7 8 8 7 5 4 5 4 5 1 7 6 6 6 9 9 10 6 6 4 5 6 6 3 7 6 4 6 9 8 4 5 5 5 6 5 6 6 7 5 4 5 7
6 7 7 8 8 8 7 7 7 7 7 7 8 7 7 4 5 5 10 10 5 7 6 6 2 6 11 7 8 5 6 6 5 5 3 5 5 4 6 6 7 9 7 7 10 11 7 9 8 9 7 7 9 10
7 7 7 8 9 9 8 7 7 7 7 7 7 8 5 4 4 2 14 11 7 6 6 5 9 6 11 10 8 7 6 7 3 6 7 6 8 6 7 10 10 8 10 10 12 13 9 10 9 11 10 10 10 10
8 8 8 8 8 7 7 6 6 8 8 7 6 5 4 2 16 11 6 7 8 6 6 6 10 3 7 11 9 6 7 9 7 8 5 6 11 14 12 13 11 8 10 12 14 14 13 12 12 12 12 11 11 12
7 8 9 9 9 8 6 5 6 8 8 6 6 2 5 2 4 5 6 6 7 5 6 7 12 6 3 5 9 10 7 6 8 8 10 10 11 10 15 12 13 12 9 12 13 13 13 12 12 12 12 11 11 11
8 9 8 8 8 6 5 5 6 5 2 2 3 1 3 3 6 6 5 5 6 6 8 10 11 9 2 4 3 4 7 6 7 5 6 12 8 10 7 6 8 14 12 12 12 13 14 12 11 11 11 11 12 11
5 4 4 5 5 4 5 6 7 8 11 3 3 5 5 4 5 6 6 5 7 6 5 6 9 6 4 6 1 6 8 6 4 6 10 6 7 7 5 4 5 10 14 13 13 14 14 13 10 11 11 11 11 12
3 4 4 5 5 5 6 6 5 6 6 4 6 4 6 6 5 6 9 3 2 1 2 5 4 7 3 5 4 5 2 3 6 11 12 7 8 8 7 6 6 9 14 15 14 14 15 13 11 11 11 12 12 12
4 5 5 8 9 8 8 7 6 5 4 5 4 5 7 6 2 3 2 4 3 4 4 5 4 8 7 1 4 4 3 5 6 7 1 2 4 5 5 5 7 8 12 14 14 14 15 15 12 12 11 12 11 12
4 5 4 6 3 3 8 9 6 4 4 5 6 7 6 3 6 5 5 6 4 5 5 3 2 5 8 6 8 6 6 8 4 3 4 5 5 4 5 7 7 8 11 14 13 14 14 14 13 12 11 12 12 12
4 1 2 2 5 4 6 3 5 6 5 4 6 9 10 3 4 3 2 2 3 3 6 5 5 7 5 9 15 6 11 1 3 7 8 6 2 4 5 6 7 8 11 13 12 11 13 13 12 12 12 11 12 11
2 4 2 3 5 5 4 5 4 4 6 7 8 8 4 6 8 7 7 5 3 3 6 4 5 7 5 7 6 4 3 4 2 5 5 4 4 4 5 4 5 8 11 11 11 12 12 12 11 10 11 12 11 11
4 4 3 1 3 4 4 6 5 5 6 5 5 8 5 7 8 9 6 3 3 2 3 2 5 8 7 5 5 2 4 3 2 2 1 2 3 4 4 2 5 8 10 11 11 10 10 12 10 10 10 11 10 10
3 3 3 3 4 4 5 3 3 5 4 1 3 6 6 7 6 7 10 9 8 6 7 5 6 7 5 4 5 3 0 3 3 6 7 5 2 3 4 3 5 8 8 10 10 8 10 10 8 10 9 11 10 11
6 4 5 4 3 5 4 2 4 3 4 4 4 5 4 5 7 9 9 10 10 9 10 10 10 11 3 1 7 7 5 2 4 3 6 6 6 3 5 5 7 9 9 9 10 9 9 9 8 9 9 9 8 9
2 3 4 4 1 4 5 4 3 2 2 2 2 3 4 4 8 7 8 8 10 11 11 12 11 9 10 11 9 10 5 4 3 3 3 5 8 6 6 6 8 9 10 10 9 9 9 8 7 5 7 6 1 3
3 4 3 5 5 3 6 1 4 2 3 4 5 4 4 4 4 3 5 6 4 3 4 5 8 12 12 10 4 3 6 6 9 8 1 3 4 7 7 7 9 10 10 9 8 8 8 8 8 7 5 4 5 9
4 3 4 4 5 4 3 4 3 5 5 8 6 4 4 4 5 5 4 2 2 2 3 6 6 9 9 12 10 10 10 9 6 5 3 2 1 4 5 4 5 6 6 7 7 8 8 7 9 10 10 11 10 11
1 4 3 4 3 4 5 5 6 6 6 6 6 2 1 3 3 3 2 3 4 5 4 5 6 7 6 5 6 8 8 9 9 5 6 4 2 4 2 2 3 3 5 8 8 8 7 5 3 3 5 8 11 13
4 4 3 4 3 5 4 3 5 5 6 4 3 4 5 4 4 4 5 7 6 4 3 2 3 4 7 5 4 6 3 4 3 4 0 2 3 4 6 4 3 2 3 7 9 9 7 3 1 10 8 8 10 14
3 5 5 7 3 4 4 4 7 5 3 3 3 1 2 1 3 2 3 2 0 3 5 4 4 5 4 5 5 5 6 6 7 6 6 3 2 3 5 8 10 7 8 10 9 10 11 13 13 12 11 13 13 15
4 4 6 6 8 5 5 4 3 4 3 3 4 3 5 2 4 3 2 3 4 3 2 3 3 6 3 5 7 5 6 6 6 6 6 4 4 5 5 5 8 13 9 8 9 10 11 10 10 9 10 10 10 8
6 5 5 8 6 4 3 3 2 1 1 2 2 3 0 0 1 1 2 6 8 5 4 4 2 4 5 5 5 5 6 6 11 9 8 7 5 3 8 9 10 9 9 9 6 4 9 8 8 7 8 7 8 9
6 6 3 3 4 1 2 1 2 1 3 3 3 3 1 1 2 4 8 6 9 5 5 6 6 7 6 6 7 7 4 6 7 6 7 7 9 10 11 11 10 10 9 11 10 9 4 6 5 5 4 5 4 4
2 1 4 4 3 5 6 5 3 3 3 5 7 6 8 6 5 7 9 8 8 5 5 6 4 9 9 8 8 8 9 10 12 11 9 9 9 9 9 9 10 10 11 11 11 11 10 8 7 7 9 9 7 7
2 6 1 4 3 4 4 1 2 3 4 5 5 6 7 8 7 5 5 2 7 8 5 8 7 6 8 7 7 7 5 8 7 5 9 9 8 8 7 8 8 8 8 9 9 8 11 8 7 5 5 5 5 5
4 3 3 2 3 1 2 3 5 5 4 3 10 5 3 6 5 8 3 3 5 5 8 9 11 9 10 10 10 10 10 10 11 12 13 15 14 13 7 4 4 4 4 4 5 4 6 5 4 3 2 5 4 3
Wind_Direction
223 227 221 197 193 213 229 241 253 259 283 296 302 311 317 326 324 300 309 254 284 293 288 294 282 298 294 267 263 154 177 222 211 264 280 160 256 164 239 291 300 157 236 308 222 284 141 123 161 298 53 146 168 102
216 206 179 184 195 209 226 237 245 268 306 304 308 310 310 319 321 292 272 104 279 261 291 320 290 290 284 300 316 187 210 225 227 218 184 334 206 191 257 221 168 263 310 359 348 44 79 72 67 78 17 72 66 89
182 173 171 183 191 207 231 247 250 260 285 297 300 301 303 316 318 264 297 319 276 257 266 243 238 238 225 234 246 285 211 4 161 348 346 8 3 308 242 237 228 193 234 276 305 173 189 136 117 131 15 74 103 119
168 167 182 190 199 217 240 257 263 270 277 282 289 291 303 306 307 283 260 293 283 286 277 247 194 213 217 237 230 241 286 303 258 213 248 269 263 121 299 343 293 44 149 221 233 179 166 189 186 167 132 84 123 106
170 181 192 201 212 227 245 258 265 272 280 285 296 292 300 307 299 280 270 256 258 289 320 301 321 208 188 215 216 221 233 230 217 205 238 251 214 308 255 306 272 205 235 230 24 151 205 153 186 173 191 196 193 171
182 196 204 213 225 246 258 264 278 274 278 292 304 294 299 309 310 290 280 184 221 233 278 259 223 174 194 185 196 193 214 219 243 234 237 73 67 292 279 283 326 268 188 252 269 181 189 172 243 182 193 196 167 200
204 219 222 226 239 248 265 273 282 281 282 290 299 286 285 289 244 236 323 360 199 234 247 241 226 166 196 184 169 167 199 222 248 223 256 258 160 211 271 270 277 187 307 239 220 214 175 193 209 196 186 188 126 206
238 241 234 232 243 252 264 270 277 284 285 290 293 282 282 282 251 274 241 195 200 246 255 264 233 155 190 191 180 177 188 206 198 260 141 251 158 222 263 269 269 259 235 223 200 209 219 182 215 173 177 172 189 198
251 256 242 233 241 250 261 263 277 284 280 283 292 284 211 214 218 196 120 140 221 297 297 236 250 194 160 222 202 168 226 208 130 230 234 224 244 217 248 273 266 236 227 212 197 217 203 189 187 176 189 180 189 184
246 248 246 242 247 257 256 258 278 279 275 274 248 218 212 164 113 143 178 184 191 217 221 262 261 177 216 196 201 194 190 240 209 219 204 226 254 262 231 242 259 246 213 215 199 208 200 203 189 188 195 189 204 184
245 250 251 246 245 241 245 258 273 287 261 216 210 222 76 157 234 223 216 212 179 212 205 234 257 239 204 212 215 217 217 238 231 217 215 232 244 239 235 236 221 226 222 215 228 199 209 206 186 189 193 198 198 200
252 255 246 241 230 233 235 255 266 254 16 6 311 18 206 211 232 246 207 195 205 231 170 208 217 243 29 296 186 360 245 174 239 158 224 238 248 263 267 252 232 210 211 213 209 195 193 193 187 187 183 187 194 184
250 253 251 241 230 223 236 244 257 293 279 214 240 225 195 196 232 226 197 199 212 186 180 210 188 202 139 242 125 153 238 193 288 217 236 241 242 225 172 225 207 202 206 213 198 189 184 180 182 182 177 181 191 167
244 248 245 241 236 232 233 237 245 255 253 236 208 245 221 205 225 206 230 310 18 251 125 235 198 180 67 236 118 239 226 306 255 234 226 222 195 242 212 212 225 208 204 202 196 190 183 168 184 182 178 179 187 176
259 256 256 246 233 235 228 221 223 231 269 251 233 238 222 250 298 306 257 269 210 283 254 227 180 213 135 158 231 189 179 234 239 234 196 278 181 234 263 233 223 208 200 198 189 189 180 174 180 182 192 181 186 178
280 287 216 148 194 210 188 198 198 234 240 238 232 249 240 192 251 208 252 272 256 259 255 257 292 251 196 196 192 196 203 196 238 221 224 137 63 357 292 270 239 208 199 199 193 188 184 181 184 181 185 184 185 180
268 195 99 160 183 195 197 245 208 230 246 235 232 234 269 241 259 186 216 310 289 257 219 232 231 210 258 223 223 212 226 94 58 296 92 72 30 343 321 265 229 212 196 201 190 177 184 180 180 173 179 186 188 173
253 104 100 177 204 166 200 212 247 250 240 244 261 268 284 276 287 271 249 185 173 251 262 243 327 235 233 243 256 254 245 155 146 25 50 37 36 4 327 288 230 196 192 189 178 174 174 176 179 176 183 181 174 164
35 55 42 300 296 280 218 210 222 258 247 285 286 285 298 301 301 290 277 264 260 181 257 233 242 254 246 272 254 197 328 267 326 129 333 162 359 1 321 289 210 185 183 176 175 179 172 178 187 177 176 174 175 163
258 262 273 296 264 263 235 198 218 253 272 280 289 275 254 261 268 270 273 235 214 192 217 228 217 243 265 294 277 294 155 96 281 279 280 241 165 326 282 254 197 184 176 175 187 194 166 188 192 162 173 180 177 173
189 133 180 243 231 238 273 261 229 271 325 287 0 338 283 245 253 254 239 251 223 227 237 236 238 258 226 91 6 312 119 342 329 310 277 304 336 330 257 223 226 188 188 184 190 178 168 187 176 167 162 186 209 180
118 184 219 160 266 275 267 259 251 173 245 285 267 220 258 257 256 231 225 234 242 234 230 240 249 250 233 241 217 210 268 306 264 268 228 245 263 262 227 208 211 198 195 190 181 168 190 160 140 160 161 188 88 15
203 200 227 221 209 243 262 198 253 152 244 225 175 218 220 218 225 244 227 212 229 20 344 309 301 257 259 272 224 209 247 236 258 241 197 295 313 307 280 208 198 186 182 177 152 135 118 123 130 141 140 175 145 120
178 278 239 209 201 277 244 237 205 233 224 227 216 226 176 199 171 211 235 120 78 92 293 290 266 264 224 222 246 238 224 228 242 261 197 155 58 277 278 323 3 75 124 134 149 153 142 182 181 189 177 196 162 138
184 263 190 241 230 250 235 242 223 224 249 242 266 274 96 188 235 232 251 146 216 240 265 246 243 235 251 250 244 233 204 185 217 220 129 175 163 135 99 70 58 82 140 140 127 114 107 113 133 105 154 179 149 166
233 222 217 221 162 229 247 293 323 294 305 301 26 26 6 338 336 353 6 338 336 7 357 35 281 231 221 200 135 112 89 67 81 163 131 249 213 168 151 149 125 121 95 110 111 110 103 67 337 233 182 161 150 173
244 243 219 204 214 245 258 256 243 264 281 354 10 49 112 151 247 325 357 74 302 22 40 12 22 69 72 100 123 141 155 179 199 203 178 215 243 221 192 179 180 164 155 138 138 150 174 189 185 195 162 156 165 177
251 262 236 217 219 239 249 257 268 41 45 24 331 321 333 321 12 18 355 138 159 154 48 3 51 69 85 129 126 139 116 129 127 128 151 134 233 167 69 69 104 133 145 164 187 207 189 173 166 155 158 168 177 203
233 231 220 236 218 231 263 3 79 252 154 199 247 267 49 4 321 156 157 53 79 107 107 92 102 196 172 114 112 124 127 142 146 155 153 143 133 111 101 116 152 161 168 162 51 122 133 138 148 162 174 180 177 185
242 211 245 257 231 245 80 68 79 316 218 215 250 258 223 285 129 77 103 102 121 131 147 165 187 214 128 136 129 147 140 138 161 144 103 101 113 125 128 153 162 154 148 152 150 138 103 175 148 197 218 245 201 210
169 239 250 266 300 22 13 349 264 231 250 243 222 176 126 126 104 81 122 125 121 121 102 99 94 80 64 62 67 82 80 74 78 82 95 103 109 116 122 129 132 142 154 167 164 170 172 211 227 227 222 225 231 220
109 20 60 318 330 322 306 223 161 226 220 213 126 98 95 93 99 68 29 80 114 98 115 106 96 99 131 162 109 93 63 108 111 75 112 100 110 126 138 129 138 139 157 173 184 187 212 210 220 201 178 190 214 200
95 52 41 273 259 32 155 166 203 203 196 103 81 16 138 146 112 116 216 38 75 86 85 84 74 69 72 71 81 78 63 74 69 54 49 41 32 21 14 69 99 88 159 162 126 162 187 204 206 206 217 164 220 263